Location: Newark
(18.3602°N, 71.9767°W)
Time: 14:25:03
(UTC+00:00)

X-37B - Visible Passes

Search period start: 27 September 2020 00:00
Search period end: 07 October 2020 00:00
Orbit: 386 x 387 km, 45.0° (Epoch: 18 September)

Date Brightness Start Highest point End Pass type
(mag) Time Alt. Az. Time Alt. Az. Time Alt. Az.
27 Sep 3.1 08:55:58 19° NE 08:56:07 19° NE 08:58:27 10° E visible
27 Sep 0.8 23:43:59 10° SSW 23:47:01 45° SE 23:47:04 45° SE visible
28 Sep 0.6 09:33:26 44° W 09:34:09 58° SW 09:37:15 10° SE visible
29 Sep 3.1 00:22:28 10° W 00:24:26 21° WNW 00:24:26 21° WNW visible
29 Sep 4.0 08:38:36 10° ESE 08:38:36 10° ESE 08:38:39 10° ESE visible
29 Sep 1.1 23:23:18 10° WSW 23:26:25 57° NW 23:29:22 11° NE visible
01 Oct 3.8 00:04:04 10° NW 00:04:36 10° NW 00:05:08 10° NNW visible
01 Oct 2.9 23:03:21 10° W 23:05:54 22° NW 23:08:26 10° NNE visible
